FW2273 Weather Reports


time (UTC)temp
C
wind
direction
speed
KPH
gust
KPH
rain 1hr
cm
rain 24hr
cm
rain mn
cm
humidity
%
barometer
mb
20260503213047 18 96 1.6 6.4 0.00 0.00 0.00 32 1013.6
20260503211546 17 180 3.2 9.7 0.00 0.00 0.00 32 1013.8
20260503210034 17 219 3.2 6.4 0.00 0.00 0.00 31 1013.9
20260503204536 17 38 1.6 12.9 0.00 0.00 0.00 34 1014.1
20260503203044 17 159 1.6 6.4 0.00 0.00 0.00 37 1014.2
20260503201533 17 186 1.6 9.7 0.00 0.00 0.00 36 1014.3
20260503200033 18 227 1.6 6.4 0.00 0.00 0.00 35 1014.6
20260503194532 17 91 1.6 4.8 0.00 0.00 0.00 32 1014.8
20260503193031 17 169 1.6 6.4 0.00 0.00 0.00 34 1015.0
20260503191534 17 218 4.8 9.7 0.00 0.00 0.00 35 1015.2
20260503190028 17 40 0.0 11.3 0.00 0.00 0.00 38 1015.4
20260503184526 17 162 1.6 6.4 0.00 0.00 0.00 44 1015.5
20260503183024 16 84 0.0 4.8 0.00 0.00 0.00 46 1015.7
20260503181522 16 142 0.0 6.4 0.00 0.00 0.00 47 1015.9
20260503180108 15 132 1.6 9.7 0.00 0.00 0.00 45 1016.0
20260503174600 15 281 1.6 4.8 0.00 0.00 0.00 44 1016.1
20260503173029 14 216 0.0 6.4 0.00 0.00 0.00 47 1016.4
20260503171525 15 32 1.6 4.8 0.00 0.00 0.00 55 1016.7
20260503110106 1 232 0.0 0.0 0.00 0.00 0.00 91 1016.6
20260503081520 3 232 0.0 0.0 0.00 0.00 0.00 87 1014.8
20260503071509 4 232 0.0 0.0 0.00 0.00 0.00 86 1014.1
20260503054535 5 232 0.0 0.0 0.00 0.00 0.00 84 1014.1
20260503053033 5 232 0.0 0.0 0.00 0.00 0.00 85 1014.0
20260503051527 5 232 0.0 0.0 0.00 0.00 0.00 85 1014.2
20260503050035 5 232 0.0 0.0 0.00 0.00 0.00 85 1014.1
20260503044522 5 232 0.0 1.6 0.00 0.00 0.00 85 1013.9
20260503043020 5 232 0.0 1.6 0.00 0.00 0.00 85 1013.9
20260503041527 5 232 0.0 0.0 0.00 0.00 0.00 84 1013.6
20260503040019 5 232 0.0 0.0 0.00 0.00 0.00 84 1013.6
20260503034547 5 232 0.0 1.6 0.00 0.00 0.00 83 1013.3
20260503033045 5 232 0.0 3.2 0.00 0.00 0.00 83 1013.3
20260503031546 5 232 0.0 1.6 0.00 0.00 0.00 82 1013.3
20260503030047 5 232 0.0 0.0 0.00 0.00 0.00 82 1013.2
20260503024537 5 232 0.0 0.0 0.00 0.00 0.00 82 1013.1
20260503023037 5 232 0.0 1.6 0.00 0.00 0.00 82 1012.9
20260503021532 5 232 0.0 0.0 0.00 0.00 0.00 81 1012.6
20260503020030 5 232 0.0 0.0 0.00 0.00 0.00 80 1012.5
20260503014527 6 232 0.0 0.0 0.00 0.00 0.00 79 1012.1
20260503013027 6 232 0.0 0.0 0.00 0.00 0.00 77 1011.9
20260503011522 6 232 0.0 0.0 0.00 0.00 0.00 76 1011.7
20260503010021 7 232 0.0 0.0 0.00 0.00 0.00 74 1011.4
20260503004513 7 232 0.0 0.0 0.00 0.00 0.00 71 1011.1
20260503003010 8 232 0.0 0.0 0.00 0.00 0.00 69 1011.0
20260503001512 9 232 0.0 1.6 0.00 0.00 0.00 65 1010.9
20260503000005 10 232 0.0 1.6 0.00 0.00 0.00 62 1010.6
20260502234503 11 232 0.0 3.2 0.00 0.00 0.00 56 1010.4
20260502233002 12 231 1.6 8.0 0.00 0.00 0.00 48 1010.3
20260502231502 13 140 3.2 9.7 0.00 0.00 0.00 46 1010.1
20260502230035 13 175 1.6 4.8 0.00 0.00 0.00 44 1009.7
20260502224532 13 360 1.6 8.0 0.00 0.00 0.00 44 1009.8
20260502223027 14 17 0.0 3.2 0.00 0.00 0.00 48 1009.7
20260502221527 14 190 3.2 6.4 0.00 0.00 0.00 45 1009.5
20260502220028 14 113 1.6 12.9 0.00 0.00 0.00 45 1009.5
20260502214526 15 234 3.2 6.4 0.00 0.00 0.00 42 1009.1